Location: Unspecified
(27.9470°N, 0.0000°E)
Time: 06:27:21
(UTC+00:00)

CANX 3A (UNIBRITE) - Visible Passes

Search period start: 04 April 2026 00:00
Search period end: 14 April 2026 00:00
Orbit: 763 x 778 km, 98.4° (Epoch: 28 March)

Date Brightness Start Highest point End Pass type
(mag) Time Alt. Az. Time Alt. Az. Time Alt. Az.
4 Apr ? 04:14:15 10° ESE 04:18:06 22° ENE 04:21:58 10° NNE visible
5 Apr ? 05:16:36 10° S 05:21:41 75° WSW 05:26:46 10° NNW visible
6 Apr ? 04:41:44 10° SE 04:46:33 44° ENE 04:51:21 10° N visible
6 Apr ? 18:38:01 10° NNW 18:42:04 24° WNW 18:46:07 10° SW visible
7 Apr ? 04:08:04 10° ESE 04:11:34 19° ENE 04:15:03 10° NNE visible
8 Apr ? 05:10:00 10° SSE 05:15:04 88° WSW 05:20:10 10° NNW visible
8 Apr ? 19:08:31 10° NW 19:10:23 12° WNW 19:12:16 10° W visible
9 Apr ? 04:35:19 10° SE 04:39:58 38° ENE 04:44:38 10° N visible
10 Apr ? 04:01:58 10° ESE 04:05:02 16° ENE 04:08:04 10° NNE visible
11 Apr ? 05:03:25 10° SSE 05:08:28 79° ENE 05:13:33 10° N visible
11 Apr ? 19:01:14 10° NW 19:03:51 14° WNW 19:06:30 10° W visible
12 Apr ? 04:28:56 10° SE 04:33:23 32° ENE 04:37:52 10° N visible
13 Apr ? 03:56:00 10° E 03:58:29 14° ENE 04:00:57 10° NE visible
